Content
SEND FEEDBACK

Daily
Averages
Monthly
Summary
United States of America

WAHWEAP, ARIZONA


Home > North America > United States > Arizona
Elevation: 3703 feet     Latitude: 36 59N     Longitude: 111 29W

WEATHER
 
SELECT A DAY
Number of Records: 194,654;   Date Range: 1/1/95 - 7/23/14
 
SHARE

PRINT THIS DATA

[ ← Previous Day ]
WEATHER ALMANAC - JANUARY 25, 2014
[ Next Day → ]
[ °C ]   °F
Weather ElementAverageHighLow
Temperature36.6 °F48 °F (3:53 pm)28 °F (6:53 am)
Dewpoint12 °F16 °F (9:53 am)10 °F (4:53 pm)
Humidity37.6 %53 % (6:53 am)22 % (3:53 pm)
Barometer30.32 in30.44 in (1:53 am)30.19 in (11:53 pm)
Wind Speed1.9 mph4.6 mph (10:53 am)
Weather ElementAverage
Visibility9.3 mi
Wind DirectionENE (57.8 °)

Weather ElementTotal
Precipitation---
Heating Degree Days27 (Base 65)
Averaged from 23 records on January 25, 2014
WEATHER CONDITIONS BREAKOUT
WIND DIRECTION BREAKOUT
WEATHER BY HOUR - JANUARY 25, 2014
[ °C ]   °F
Local TimeTemperatureDewpointHumidityBarometerVisibilityWind DirectionWind SpeedGust SpeedPrecipitationEventsConditions
1:53 AM30.0 °F10.9 °F45 %30.44 in9.0 miCalmClear
2:53 AM28.9 °F12.0 °F49 %30.43 in6.0 miSW (220°)3.5 mphHaze
3:53 AM30.0 °F10.9 °F45 %30.41 in10.0 miCalmClear
4:53 AM30.0 °F10.9 °F45 %30.40 in10.0 miCalmClear
5:53 AM28.9 °F10.9 °F47 %30.40 in10.0 miSE (130°)3.5 mphClear
6:53 AM28.0 °F12.9 °F53 %30.41 in9.0 miCalmClear
7:53 AM28.0 °F12.0 °F51 %30.43 in5.0 miSW (230°)3.5 mphHaze
8:53 AM30.9 °F12.9 °F47 %30.42 in10.0 miCalmClear
9:53 AM37.0 °F16.0 °F42 %30.41 in10.0 miVariable3.5 mphClear
10:53 AM37.0 °F14.0 °F39 %30.41 in10.0 miNorth (360°)4.6 mphClear
11:53 AM39.9 °F14.0 °F35 %30.38 in10.0 miVariable3.5 mphClear
12:53 PM42.1 °F12.0 °F29 %30.33 in10.0 miNorth (10°)4.6 mphClear
1:53 PM44.1 °F10.9 °F26 %30.28 in10.0 miVariable4.6 mphClear
2:53 PM46.9 °F10.9 °F23 %30.25 in10.0 miNNE (30°)4.6 mphClear
3:53 PM48.0 °F10.9 °F22 %30.23 in10.0 miCalmClear
4:53 PM45.0 °F10.0 °F24 %30.22 in10.0 miCalmClear
5:53 PM44.1 °F10.0 °F25 %30.22 in10.0 miCalmClear
6:53 PM43.0 °F10.9 °F27 %30.22 in10.0 miCalmClear
7:53 PM39.9 °F12.0 °F32 %30.23 in9.0 miCalmClear
8:53 PM37.9 °F12.0 °F35 %30.21 in7.0 miCalmClear
9:53 PM37.0 °F12.9 °F37 %30.20 in10.0 miSSE (150°)3.5 mphClear
10:53 PM34.0 °F12.9 °F42 %30.20 in9.0 miSSW (200°)3.5 mphClear
11:53 PM32.0 °F12.9 °F45 %30.19 in10.0 miCalmClear
Hourly data recorded from KPGA, located miles away from Wahweap, Arizona







STORIES FROM OUR PARTNERS